| time (UTC) | temp F | wind direction | speed MPH | gust MPH | rain 1hr in | rain 24hr in | rain mn in | humidity % | barometer mb |
| 20260505022241 | 45 | 109 | 5.0 | 9.0 | 0.00 | 0.20 | 0.20 | 34 | 1017.9 |
| 20260505021737 | 45 | 19 | 3.0 | 7.0 | 0.00 | 0.20 | 0.20 | 33 | 1017.7 |
| 20260505021235 | 45 | 245 | 0.0 | 7.0 | 0.00 | 0.20 | 0.20 | 32 | 1017.6 |
| 20260505020730 | 44 | 359 | 4.0 | 6.0 | 0.00 | 0.20 | 0.20 | 34 | 1017.6 |
| 20260505020225 | 44 | 216 | 2.0 | 6.0 | 0.00 | 0.20 | 0.20 | 36 | 1017.9 |
| 20260505015723 | 44 | 84 | 5.0 | 6.0 | 0.00 | 0.20 | 0.20 | 35 | 1017.7 |
| 20260505015220 | 44 | 57 | 2.0 | 5.0 | 0.00 | 0.20 | 0.20 | 37 | 1017.7 |
| 20260505014717 | 45 | 162 | 0.0 | 5.0 | 0.00 | 0.20 | 0.20 | 32 | 1017.6 |
| 20260505014214 | 45 | 99 | 3.0 | 6.0 | 0.00 | 0.20 | 0.20 | 33 | 1017.6 |
| 20260505013711 | 46 | 139 | 1.0 | 4.0 | 0.00 | 0.20 | 0.20 | 30 | 1017.5 |
| 20260505013208 | 46 | 179 | 6.0 | 10.0 | 0.00 | 0.20 | 0.20 | 30 | 1017.5 |
| 20260505012706 | 46 | 129 | 3.0 | 15.0 | 0.00 | 0.20 | 0.20 | 29 | 1017.6 |
| 20260505012203 | 46 | 125 | 3.0 | 5.0 | 0.00 | 0.20 | 0.20 | 29 | 1017.6 |
| 20260505011659 | 46 | 246 | 4.0 | 5.0 | 0.00 | 0.20 | 0.20 | 27 | 1017.5 |
| 20260505011156 | 46 | 40 | 1.0 | 3.0 | 0.00 | 0.20 | 0.20 | 30 | 1017.9 |
| 20260505010651 | 47 | 233 | 1.0 | 4.0 | 0.00 | 0.20 | 0.20 | 28 | 1017.7 |
| 20260505010149 | 47 | 163 | 4.0 | 17.0 | 0.00 | 0.20 | 0.20 | 26 | 1017.7 |
| 20260505005644 | 47 | 191 | 10.0 | 18.0 | 0.00 | 0.20 | 0.20 | 27 | 1017.7 |
| 20260505005142 | 47 | 178 | 9.0 | 17.0 | 0.00 | 0.20 | 0.20 | 27 | 1017.9 |
| 20260505004639 | 47 | 206 | 8.0 | 16.0 | 0.00 | 0.20 | 0.20 | 29 | 1017.7 |
| 20260505004135 | 47 | 237 | 11.0 | 30.0 | 0.00 | 0.20 | 0.20 | 29 | 1017.6 |
| 20260505003632 | 48 | 212 | 20.0 | 26.0 | 0.00 | 0.20 | 0.20 | 30 | 1017.9 |
| 20260505003130 | 48 | 243 | 18.0 | 22.0 | 0.00 | 0.20 | 0.20 | 32 | 1017.6 |
| 20260505002626 | 48 | 205 | 6.0 | 33.0 | 0.00 | 0.20 | 0.20 | 31 | 1017.7 |
| 20260505002124 | 48 | 185 | 6.0 | 18.0 | 0.00 | 0.20 | 0.20 | 35 | 1017.6 |
| 20260505001621 | 48 | 182 | 17.0 | 24.0 | 0.00 | 0.20 | 0.20 | 35 | 1017.6 |
| 20260505001119 | 48 | 250 | 12.0 | 26.0 | 0.00 | 0.20 | 0.20 | 34 | 1017.5 |
| 20260505000615 | 48 | 218 | 28.0 | 38.0 | 0.00 | 0.20 | 0.20 | 32 | 1017.6 |
| 20260505000114 | 48 | 230 | 16.0 | 37.0 | 0.00 | 0.20 | 0.20 | 35 | 1017.3 |
| 20260504235609 | 48 | 228 | 25.0 | 38.0 | 0.00 | 0.20 | 0.20 | 34 | 1017.6 |
| 20260504235106 | 49 | 229 | 18.0 | 21.0 | 0.00 | 0.20 | 0.20 | 36 | 1017.2 |
| 20260504234603 | 49 | 233 | 21.0 | 30.0 | 0.00 | 0.20 | 0.20 | 36 | 1017.2 |
| 20260504234100 | 49 | 191 | 26.0 | 26.0 | 0.00 | 0.20 | 0.20 | 34 | 1017.5 |
| 20260504233555 | 49 | 241 | 11.0 | 22.0 | 0.00 | 0.20 | 0.20 | 32 | 1017.6 |
| 20260504233052 | 50 | 238 | 14.0 | 27.0 | 0.00 | 0.20 | 0.20 | 31 | 1017.5 |
| 20260504232550 | 49 | 231 | 13.0 | 35.0 | 0.00 | 0.20 | 0.20 | 31 | 1017.7 |
| 20260504232047 | 49 | 229 | 5.0 | 28.0 | 0.00 | 0.20 | 0.20 | 29 | 1017.5 |
| 20260504231543 | 49 | 222 | 13.0 | 33.0 | 0.00 | 0.20 | 0.20 | 28 | 1017.5 |
| 20260504231040 | 50 | 227 | 8.0 | 29.0 | 0.00 | 0.20 | 0.20 | 33 | 1017.5 |
| 20260504230536 | 49 | 237 | 9.0 | 34.0 | 0.00 | 0.20 | 0.20 | 38 | 1017.2 |
| 20260504230035 | 50 | 207 | 9.0 | 34.0 | 0.00 | 0.20 | 0.20 | 35 | 1017.1 |
| 20260504225532 | 51 | 238 | 10.0 | 23.0 | 0.00 | 0.20 | 0.20 | 35 | 1017.2 |
| 20260504225029 | 50 | 236 | 9.0 | 24.0 | 0.00 | 0.20 | 0.20 | 37 | 1016.8 |
| 20260504224525 | 50 | 253 | 18.0 | 37.0 | 0.00 | 0.20 | 0.20 | 37 | 1017.2 |
| 20260504224023 | 50 | 241 | 8.0 | 37.0 | 0.00 | 0.20 | 0.20 | 39 | 1017.2 |
| 20260504223519 | 50 | 224 | 17.0 | 28.0 | 0.00 | 0.20 | 0.20 | 37 | 1017.3 |
| 20260504223015 | 51 | 207 | 15.0 | 27.0 | 0.00 | 0.20 | 0.20 | 37 | 1017.5 |
| 20260504222512 | 52 | 247 | 13.0 | 34.0 | 0.00 | 0.20 | 0.20 | 33 | 1017.2 |
| 20260504222010 | 52 | 215 | 16.0 | 22.0 | 0.00 | 0.20 | 0.20 | 38 | 1017.5 |
| 20260504221507 | 50 | 205 | 12.0 | 31.0 | 0.00 | 0.20 | 0.20 | 38 | 1017.7 |
| 20260504221004 | 54 | 234 | 7.0 | 21.0 | 0.00 | 0.20 | 0.20 | 37 | 1017.5 |
| 20260504220500 | 53 | 234 | 11.0 | 21.0 | 0.00 | 0.20 | 0.20 | 36 | 1017.6 |
| 20260504215957 | 51 | 222 | 9.0 | 18.0 | 0.00 | 0.20 | 0.20 | 36 | 1017.6 |
| 20260504215453 | 51 | 239 | 31.0 | 31.0 | 0.00 | 0.20 | 0.20 | 38 | 1017.7 |
| 20260504214950 | 52 | 224 | 15.0 | 20.0 | 0.00 | 0.20 | 0.20 | 36 | 1017.6 |
| 20260504214446 | 51 | 226 | 17.0 | 30.0 | 0.00 | 0.20 | 0.20 | 34 | 1017.9 |
| 20260504213943 | 52 | 240 | 10.0 | 22.0 | 0.00 | 0.20 | 0.20 | 37 | 1017.7 |
| 20260504213439 | 51 | 230 | 9.0 | 23.0 | 0.00 | 0.20 | 0.20 | 37 | 1018.0 |
| 20260504212937 | 50 | 229 | 17.0 | 32.0 | 0.00 | 0.20 | 0.20 | 34 | 1018.1 |
| 20260504212432 | 51 | 225 | 15.0 | 29.0 | 0.00 | 0.20 | 0.20 | 36 | 1018.1 |
| 20260504211931 | 52 | 233 | 8.0 | 30.0 | 0.00 | 0.20 | 0.20 | 35 | 1018.0 |
| 20260504211426 | 51 | 228 | 17.0 | 32.0 | 0.00 | 0.20 | 0.20 | 35 | 1018.3 |
| 20260504210924 | 51 | 236 | 10.0 | 25.0 | 0.00 | 0.20 | 0.20 | 38 | 1018.3 |
| 20260504210421 | 51 | 226 | 13.0 | 41.0 | 0.00 | 0.20 | 0.20 | 36 | 1018.4 |
| 20260504205918 | 51 | 238 | 20.0 | 35.0 | 0.00 | 0.20 | 0.20 | 34 | 1018.3 |
| 20260504205416 | 53 | 209 | 22.0 | 25.0 | 0.00 | 0.20 | 0.20 | 38 | 1018.4 |
| 20260504204914 | 51 | 219 | 17.0 | 22.0 | 0.00 | 0.20 | 0.20 | 39 | 1018.4 |
| 20260504204412 | 51 | 227 | 7.0 | 26.0 | 0.00 | 0.20 | 0.20 | 39 | 1018.5 |
| 20260504203911 | 51 | 216 | 15.0 | 21.0 | 0.00 | 0.20 | 0.20 | 38 | 1018.5 |
| 20260504203408 | 51 | 217 | 5.0 | 24.0 | 0.00 | 0.20 | 0.20 | 40 | 1018.7 |
| 20260504202903 | 51 | 221 | 15.0 | 30.0 | 0.00 | 0.20 | 0.20 | 38 | 1018.9 |
| 20260504202400 | 51 | 240 | 14.0 | 26.0 | 0.00 | 0.20 | 0.20 | 40 | 1018.8 |
| 20260504201857 | 50 | 221 | 20.0 | 26.0 | 0.00 | 0.20 | 0.20 | 41 | 1018.5 |
| 20260504201355 | 51 | 238 | 8.0 | 21.0 | 0.00 | 0.20 | 0.20 | 39 | 1018.8 |
| 20260504200852 | 50 | 213 | 6.0 | 26.0 | 0.00 | 0.20 | 0.20 | 40 | 1018.8 |
| 20260504200348 | 51 | 225 | 10.0 | 25.0 | 0.00 | 0.20 | 0.20 | 39 | 1018.9 |
| 20260504195845 | 51 | 226 | 15.0 | 27.0 | 0.00 | 0.20 | 0.20 | 39 | 1019.1 |
| 20260504195340 | 52 | 264 | 9.0 | 24.0 | 0.00 | 0.20 | 0.20 | 38 | 1018.9 |
| 20260504194837 | 51 | 226 | 16.0 | 25.0 | 0.00 | 0.20 | 0.20 | 39 | 1018.7 |
| 20260504194333 | 51 | 225 | 14.0 | 25.0 | 0.00 | 0.20 | 0.20 | 41 | 1018.9 |
| 20260504193829 | 51 | 228 | 6.0 | 23.0 | 0.00 | 0.20 | 0.20 | 40 | 1018.9 |
| 20260504193327 | 50 | 200 | 17.0 | 24.0 | 0.00 | 0.20 | 0.20 | 43 | 1018.9 |
| 20260504192826 | 50 | 209 | 23.0 | 36.0 | 0.00 | 0.20 | 0.20 | 42 | 1018.9 |
| 20260504192323 | 51 | 219 | 7.0 | 16.0 | 0.00 | 0.20 | 0.20 | 41 | 1018.9 |
| 20260504191822 | 52 | 220 | 9.0 | 21.0 | 0.00 | 0.20 | 0.20 | 42 | 1018.9 |
| 20260504191319 | 51 | 231 | 9.0 | 22.0 | 0.00 | 0.20 | 0.20 | 42 | 1019.1 |
| 20260504190814 | 52 | 253 | 22.0 | 22.0 | 0.00 | 0.20 | 0.20 | 41 | 1018.8 |
| 20260504190310 | 51 | 228 | 15.0 | 18.0 | 0.00 | 0.20 | 0.20 | 43 | 1019.2 |
| 20260504185807 | 51 | 218 | 7.0 | 24.0 | 0.00 | 0.20 | 0.20 | 41 | 1019.2 |
| 20260504185305 | 51 | 210 | 8.0 | 30.0 | 0.00 | 0.20 | 0.20 | 39 | 1018.9 |
| 20260504184800 | 50 | 233 | 11.0 | 24.0 | 0.00 | 0.20 | 0.20 | 44 | 1019.2 |
| 20260504184256 | 51 | 225 | 18.0 | 26.0 | 0.00 | 0.20 | 0.20 | 44 | 1019.1 |
| 20260504183752 | 51 | 212 | 8.0 | 14.0 | 0.00 | 0.20 | 0.20 | 46 | 1019.3 |
| 20260504183249 | 50 | 192 | 9.0 | 20.0 | 0.00 | 0.20 | 0.20 | 44 | 1019.1 |
| 20260504182747 | 51 | 266 | 8.0 | 17.0 | 0.00 | 0.20 | 0.20 | 48 | 1019.2 |
| 20260504182244 | 50 | 232 | 10.0 | 22.0 | 0.00 | 0.20 | 0.20 | 46 | 1019.2 |
| 20260504181742 | 52 | 209 | 9.0 | 18.0 | 0.00 | 0.20 | 0.20 | 45 | 1019.5 |
| 20260504181239 | 51 | 221 | 6.0 | 18.0 | 0.00 | 0.20 | 0.20 | 47 | 1019.6 |
| 20260504180738 | 51 | 239 | 12.0 | 17.0 | 0.00 | 0.20 | 0.20 | 45 | 1019.5 |
| 20260504180236 | 51 | 226 | 11.0 | 19.0 | 0.00 | 0.20 | 0.20 | 44 | 1019.7 |
| 20260504175733 | 51 | 220 | 14.0 | 20.0 | 0.00 | 0.20 | 0.20 | 45 | 1019.5 |
| 20260504175230 | 51 | 218 | 9.0 | 18.0 | 0.00 | 0.20 | 0.20 | 45 | 1019.7 |
| 20260504174728 | 51 | 227 | 8.0 | 14.0 | 0.00 | 0.20 | 0.20 | 47 | 1019.7 |
| 20260504174226 | 51 | 247 | 11.0 | 15.0 | 0.00 | 0.20 | 0.20 | 46 | 1019.6 |
| 20260504173722 | 50 | 239 | 13.0 | 25.0 | 0.00 | 0.20 | 0.20 | 48 | 1019.7 |
| 20260504173219 | 51 | 227 | 17.0 | 20.0 | 0.00 | 0.20 | 0.20 | 47 | 1019.9 |
| 20260504172715 | 50 | 212 | 6.0 | 14.0 | 0.00 | 0.20 | 0.20 | 50 | 1019.7 |
| 20260504172212 | 50 | 244 | 11.0 | 21.0 | 0.00 | 0.20 | 0.20 | 48 | 1020.0 |
| 20260504171708 | 50 | 248 | 10.0 | 18.0 | 0.00 | 0.20 | 0.20 | 51 | 1020.0 |
| 20260504171206 | 50 | 243 | 3.0 | 15.0 | 0.00 | 0.20 | 0.20 | 56 | 1019.9 |
| 20260504170702 | 49 | 241 | 10.0 | 13.0 | 0.00 | 0.20 | 0.20 | 59 | 1020.1 |
| 20260504170200 | 48 | 180 | 9.0 | 21.0 | 0.00 | 0.20 | 0.20 | 59 | 1020.3 |
| 20260504160118 | 46 | 212 | 10.0 | 23.0 | 0.00 | 0.20 | 0.20 | 62 | 1020.3 |
| 20260504151045 | 45 | 229 | 5.0 | 12.0 | 0.00 | 0.20 | 0.20 | 69 | 1020.7 |
| 20260504150543 | 44 | 250 | 9.0 | 10.0 | 0.00 | 0.20 | 0.20 | 71 | 1020.5 |
| 20260504141008 | 42 | 186 | 3.0 | 3.0 | 0.00 | 0.20 | 0.20 | 79 | 1020.9 |
| 20260504140505 | 41 | 86 | 3.0 | 7.0 | 0.00 | 0.20 | 0.20 | 81 | 1020.8 |
| 20260504130430 | 37 | 94 | 4.0 | 7.0 | 0.00 | 0.20 | 0.20 | 93 | 1020.5 |
| 20260504110317 | 34 | 97 | 6.0 | 12.0 | 0.00 | 0.20 | 0.20 | 97 | 1021.2 |
| 20260504100234 | 34 | 224 | 2.0 | 4.0 | 0.00 | 0.20 | 0.20 | 97 | 1021.7 |
| 20260504081628 | 35 | 161 | 4.0 | 6.0 | 0.02 | 0.12 | 0.12 | 95 | 1022.1 |
| 20260504081123 | 35 | 153 | 4.0 | 7.0 | 0.05 | 0.12 | 0.12 | 95 | 1022.0 |
| 20260504080620 | 35 | 127 | 6.0 | 8.0 | 0.09 | 0.11 | 0.11 | 95 | 1021.8 |
| 20260504080117 | 35 | 167 | 3.0 | 3.0 | 0.12 | 0.11 | 0.11 | 95 | 1022.1 |
| 20260504050433 | 41 | 205 | 22.0 | 34.0 | 0.00 | 0.00 | 0.00 | 67 | 1022.9 |
| 20260504045930 | 42 | 213 | 30.0 | 41.0 | 0.00 | 0.00 | 0.00 | 63 | 1022.6 |
| 20260504045426 | 43 | 223 | 22.0 | 33.0 | 0.00 | 0.00 | 0.00 | 59 | 1022.5 |
| 20260504044922 | 44 | 219 | 21.0 | 28.0 | 0.00 | 0.00 | 0.00 | 55 | 1022.8 |
| 20260504044420 | 44 | 197 | 16.0 | 27.0 | 0.00 | 0.00 | 0.00 | 54 | 1022.8 |
| 20260504043917 | 44 | 205 | 14.0 | 29.0 | 0.00 | 0.00 | 0.00 | 51 | 1023.0 |
| 20260504043414 | 45 | 213 | 15.0 | 24.0 | 0.00 | 0.00 | 0.00 | 50 | 1022.8 |
| 20260504042912 | 44 | 202 | 9.0 | 22.0 | 0.00 | 0.00 | 0.00 | 50 | 1022.6 |
| 20260504042408 | 45 | 214 | 13.0 | 31.0 | 0.00 | 0.00 | 0.00 | 49 | 1022.6 |
| 20260504041904 | 45 | 221 | 20.0 | 40.0 | 0.00 | 0.00 | 0.00 | 48 | 1022.2 |
| 20260504041400 | 47 | 215 | 11.0 | 31.0 | 0.00 | 0.00 | 0.00 | 43 | 1022.1 |
| 20260504040856 | 47 | 230 | 25.0 | 44.0 | 0.00 | 0.00 | 0.00 | 41 | 1021.7 |
| 20260504040354 | 46 | 218 | 10.0 | 13.0 | 0.00 | 0.00 | 0.00 | 37 | 1022.0 |
| 20260504035850 | 46 | 199 | 5.0 | 9.0 | 0.00 | 0.00 | 0.00 | 36 | 1021.7 |
| 20260504035348 | 46 | 167 | 3.0 | 5.0 | 0.00 | 0.00 | 0.00 | 35 | 1022.0 |
| 20260504034844 | 45 | 116 | 1.0 | 5.0 | 0.00 | 0.00 | 0.00 | 38 | 1021.6 |
| 20260504034342 | 43 | 86 | 2.0 | 3.0 | 0.00 | 0.00 | 0.00 | 41 | 1021.8 |
| 20260504033839 | 44 | 93 | 1.0 | 3.0 | 0.00 | 0.00 | 0.00 | 39 | 1021.8 |
| 20260504033337 | 43 | 128 | 1.0 | 3.0 | 0.00 | 0.00 | 0.00 | 39 | 1022.0 |
| 20260504032833 | 42 | 153 | 2.0 | 3.0 | 0.00 | 0.00 | 0.00 | 41 | 1021.7 |
| 20260504032330 | 42 | 100 | 2.0 | 3.0 | 0.00 | 0.00 | 0.00 | 41 | 1021.6 |
| 20260504031826 | 43 | 92 | 2.0 | 3.0 | 0.00 | 0.00 | 0.00 | 40 | 1021.4 |
| 20260504031319 | 42 | 113 | 1.0 | 4.0 | 0.00 | 0.00 | 0.00 | 42 | 1021.6 |
| 20260504030815 | 43 | 97 | 2.0 | 3.0 | 0.00 | 0.00 | 0.00 | 40 | 1021.8 |
| 20260504030312 | 43 | 169 | 2.0 | 6.0 | 0.00 | 0.00 | 0.00 | 40 | 1022.0 |
| 20260504025808 | 42 | 159 | 5.0 | 7.0 | 0.00 | 0.00 | 0.00 | 40 | 1021.4 |
| 20260504025306 | 42 | 109 | 2.0 | 4.0 | 0.00 | 0.00 | 0.00 | 42 | 1021.4 |
| 20260504024802 | 42 | 121 | 3.0 | 3.0 | 0.00 | 0.00 | 0.00 | 41 | 1021.6 |
| 20260504024258 | 43 | 110 | 2.0 | 4.0 | 0.00 | 0.00 | 0.00 | 39 | 1021.6 |
| 20260504023755 | 44 | 117 | 0.0 | 3.0 | 0.00 | 0.00 | 0.00 | 37 | 1021.7 |
| 20260504023252 | 45 | 185 | 1.0 | 4.0 | 0.00 | 0.00 | 0.00 | 36 | 1021.4 |
| 20260504022748 | 45 | 129 | 2.0 | 6.0 | 0.00 | 0.00 | 0.00 | 36 | 1021.3 |